Weather History for KSUN - December, 2011

Change the Weather History Date:

Wednesday, December 21, 2011

  Actual Average Record
Temperature  
Mean Temperature 21 °F -  
Max Temperature 30 °F 31 °F 41 °F (1999)
Min Temperature 12 °F 12 °F -7 °F (1998)
Degree Days  
Heating Degree Days 44    
Moisture  
Dew Point 10 °F    
Average Humidity 65    
Maximum Humidity 93    
Minimum Humidity 32    
Precipitation  
Precipitation 0.00 in - - ()
Sea Level Pressure  
Sea Level Pressure 30.03 in    
Wind  
Wind Speed 8 mph (NW)    
Max Wind Speed 22 mph    
Max Gust Speed 33 mph    
Visibility 9 miles    
Events Snow    
Averages and records for this station are not official NWS values.
T = Trace of Precipitation, MM = Missing Value Source: NWS Daily Summary

Daily Weather History Graph

Daily Weather History Graph

Search for Another Location

Airport or City:

Trip Planner

Search our weather history database for the weather conditions in past years. The results will help you decide how hot, cold, wet, or windy it might be!

Date:

Astronomy

Dec. 21, 2011 Rise Set
Actual Time 8:06 AM MST 5:03 PM MST
Civil Twilight 7:34 AM MST 5:36 PM MST
Nautical Twilight 6:57 AM MST 6:12 PM MST
Astronomical Twilight 6:23 AM MST 6:47 PM MST
Moon 4:42 AM MST (12/21) 2:27 PM MST (12/21)
Length of Visible Light 10h 02m
Length of Day
8h 56m
Waning Crescent, 12% of the Moon is Illuminated
Dec 21
Waning Crescent
Dec 24
New
Dec 31
First Quarter
Jan 9
Full
Jan 16
Last Quarter

Hourly Weather History & Observations

Time (MST) Temp. Windchill Dew Point Humidity Pressure Visibility Wind Dir Wind Speed Gust Speed Precip Events Conditions
12:15 AM 17.6 °F 9.3 °F 15.8 °F 93% 29.95 in 7.0 mi NNW 5.8 mph - N/A   Clear
12:55 AM 17.6 °F 10.7 °F 15.8 °F 93% 29.93 in 7.0 mi North 4.6 mph - N/A   Clear
1:15 AM 15.8 °F 7.2 °F 14.0 °F 93% 29.92 in 7.0 mi North 5.8 mph - N/A   Clear
1:35 AM 14.0 °F 6.5 °F 12.2 °F 93% 29.90 in 7.0 mi NNW 4.6 mph - N/A   Clear
1:55 AM 14.0 °F 1.2 °F 12.2 °F 93% 29.91 in 7.0 mi NNW 10.4 mph - N/A   Clear
2:15 AM 15.8 °F 4.2 °F 14.0 °F 93% 29.90 in 10.0 mi NW 9.2 mph - N/A   Clear
2:35 AM 17.6 °F 8.2 °F 14.0 °F 86% 29.90 in 10.0 mi NW 6.9 mph - N/A   Clear
2:55 AM 17.6 °F 6.4 °F 14.0 °F 86% 29.90 in 10.0 mi NW 9.2 mph - N/A   Clear
3:15 AM 17.6 °F 7.3 °F 14.0 °F 86% 29.88 in 10.0 mi NW 8.1 mph - N/A   Scattered Clouds
3:35 AM 17.6 °F 5.7 °F 14.0 °F 86% 29.90 in 10.0 mi NW 10.4 mph - N/A   Overcast
3:55 AM 17.6 °F 6.4 °F 15.8 °F 93% 29.89 in 7.0 mi NW 9.2 mph - N/A Snow Light Snow
4:15 AM 17.6 °F 8.2 °F 14.0 °F 86% 29.88 in 10.0 mi NW 6.9 mph - N/A   Scattered Clouds
4:35 AM 17.6 °F 6.4 °F 15.8 °F 93% 29.88 in 10.0 mi NNW 9.2 mph - N/A   Scattered Clouds
4:55 AM 19.4 °F 9.5 °F 15.8 °F 86% 29.90 in 10.0 mi NW 8.1 mph - N/A   Scattered Clouds
5:15 AM 17.6 °F 9.3 °F 15.8 °F 93% 29.89 in 10.0 mi NNW 5.8 mph - N/A   Scattered Clouds
5:35 AM 19.4 °F 11.5 °F 17.6 °F 93% 29.90 in 10.0 mi NNW 5.8 mph - N/A   Clear
5:55 AM 28.4 °F 15.8 °F 10.4 °F 47% 29.90 in 10.0 mi NNW 18.4 mph 27.6 mph N/A   Clear
6:47 AM 28.4 °F 16.6 °F 5.0 °F 37% 29.92 in 7.0 mi WNW 16.1 mph 23.0 mph N/A   Clear
7:48 AM 24.8 °F 16.1 °F 6.8 °F 46% 29.94 in 7.0 mi NNW 8.1 mph - N/A   Partly Cloudy
8:49 AM 24.8 °F 16.1 °F 6.8 °F 46% 29.98 in 7.0 mi North 8.1 mph - N/A   Partly Cloudy
9:48 AM 28.4 °F 19.7 °F 8.6 °F 43% 29.98 in 7.0 mi NNW 9.2 mph - N/A   Partly Cloudy
11:49 AM 30.2 °F 18.5 °F 6.8 °F 37% 29.99 in 7.0 mi NW 17.3 mph 27.6 mph N/A   Partly Cloudy
12:53 PM 12.2 °F -6.7 °F 5.0 °F 73% 29.99 in 7.0 mi NNW 21.9 mph 33.4 mph N/A   Mostly Cloudy
1:50 PM 30.2 °F 20.2 °F 3.2 °F 32% 30.00 in 7.0 mi North 12.7 mph 21.9 mph N/A   Mostly Cloudy
2:47 PM 30.2 °F 18.1 °F 6.8 °F 37% 30.02 in 7.0 mi NNW 18.4 mph 31.1 mph N/A   Mostly Cloudy
3:50 PM 28.4 °F 18.0 °F 6.8 °F 40% 30.07 in 7.0 mi NW 12.7 mph 21.9 mph N/A   Mostly Cloudy
4:47 PM 28.4 °F 19.1 °F 6.8 °F 40% 30.10 in 7.0 mi NW 10.4 mph - N/A   Mostly Cloudy
5:47 PM 28.4 °F 18.0 °F 8.6 °F 43% 30.13 in 7.0 mi NW 12.7 mph 18.4 mph N/A   Mostly Cloudy
6:47 PM 26.6 °F 16.8 °F 6.8 °F 43% 30.16 in 10.0 mi NNW 10.4 mph 18.4 mph N/A   Clear
7:47 PM 26.6 °F 18.2 °F 8.6 °F 47% 30.18 in 10.0 mi NW 8.1 mph - N/A   Clear
8:47 PM 26.6 °F 18.2 °F 8.6 °F 47% 30.21 in 10.0 mi NNW 8.1 mph - N/A   Clear
9:50 PM 24.8 °F 19.1 °F 8.6 °F 50% 30.24 in 10.0 mi NNW 4.6 mph - N/A   Clear
10:15 PM 26.6 °F 21.2 °F 6.8 °F 43% 30.25 in 10.0 mi NW 4.6 mph - N/A   Clear
10:35 PM 24.8 °F 16.1 °F 6.8 °F 46% 30.26 in 10.0 mi NW 8.1 mph - N/A   Clear
10:47 PM 23.0 °F 13.9 °F 6.8 °F 50% 30.27 in 10.0 mi NW 8.1 mph - N/A   Clear
10:55 PM 23.0 °F 13.1 °F 8.6 °F 54% 30.27 in 10.0 mi NNW 9.2 mph - N/A   Clear
11:15 PM 17.6 °F 10.7 °F 8.6 °F 68% 30.26 in 10.0 mi North 4.6 mph - N/A   Clear
11:35 PM 19.4 °F 9.5 °F 6.8 °F 58% 30.28 in 10.0 mi WNW 8.1 mph - N/A   Clear
11:55 PM 19.4 °F 7.9 °F 6.8 °F 58% 30.27 in 10.0 mi WNW 10.4 mph - N/A   Clear